Le nostre stazioni meteo in Italia

Pubblicità
Il mio iltempo24.it
Fyvie castle, Gran Bretagna (99010): Temperatura & dewpoint: 13.06.2019 00:00:00 - 19.06.2019 00:00:00 (BST)Fyvie castle, Gran Bretagna (99010): precipitazioni: 13.06.2019 00:00:00 - 19.06.2019 00:00:00 (BST)
Data & Tempo tt [°C] td [°C] rr [mm]
19.06.2019 00:00:00 9,1 7,4 0,0
18.06.2019 23:00:00 10,8 7,5 0,0
18.06.2019 22:00:00 13,5 7,6 0,0
18.06.2019 21:00:00 15,0 8,9 0,0
18.06.2019 20:00:00 15,8 7,4 0,0
18.06.2019 19:00:00 16,6 7,1 0,0
18.06.2019 18:00:00 17,5 8,2 0,0
18.06.2019 17:00:00 16,1 8,7 0,0
18.06.2019 16:00:00 18,2 9,5 0,0
18.06.2019 15:00:00 17,5 7,4 0,0
18.06.2019 14:00:00 18,6 10,3 0,0
18.06.2019 13:00:00 16,2 8,1 0,0
18.06.2019 12:00:00 15,8 7,0 0,0
18.06.2019 11:00:00 14,7 7,0 0,0
18.06.2019 10:00:00 14,4 7,7 0,0
18.06.2019 09:00:00 13,3 8,0 0,0
18.06.2019 08:00:00 13,5 8,8 0,0
18.06.2019 07:00:00 9,5 9,0 0,0
18.06.2019 06:00:00 7,1 6,9 0,0
18.06.2019 05:00:00 7,4 7,2 0,0
18.06.2019 04:00:00 5,3 5,0 0,0
18.06.2019 03:00:00 5,3 4,7 0,0
18.06.2019 02:00:00 6,0 5,2 0,0
18.06.2019 01:00:00 6,9 5,5 0,0
18.06.2019 00:00:00 9,2 6,2 0,0
17.06.2019 23:00:00 9,6 7,1 0,0
17.06.2019 22:00:00 12,3 7,1 0,0
17.06.2019 21:00:00 14,4 6,9 0,0
17.06.2019 20:00:00 15,1 9,4 0,0
17.06.2019 19:00:00 15,6 8,3 0,0
17.06.2019 18:00:00 15,7 9,1 0,0
17.06.2019 17:00:00 15,3 9,5 0,2
17.06.2019 16:00:00 16,9 10,7 0,0
17.06.2019 15:00:00 13,5 11,2 2,4
17.06.2019 14:00:00 18,5 8,2 0,0
17.06.2019 13:00:00 15,7 8,8 0,0
17.06.2019 12:00:00 15,3 8,1 0,0
17.06.2019 11:00:00 16,7 6,8 0,0
17.06.2019 10:00:00 15,9 8,3 0,0
17.06.2019 09:00:00 14,9 8,8 0,0
17.06.2019 08:00:00 13,2 9,0 0,0
17.06.2019 07:00:00 12,5 9,6 0,0
17.06.2019 06:00:00 11,3 9,8 0,0
17.06.2019 05:00:00 10,8 9,9 0,0
17.06.2019 04:00:00 11,2 10,7 0,2
17.06.2019 03:00:00 10,3 9,6 0,2
17.06.2019 02:00:00 10,5 9,5 0,0
17.06.2019 01:00:00 10,2 8,9 0,0
17.06.2019 00:00:00 11,2 8,7 0,0
16.06.2019 23:00:00 12,0 8,4 0,0
16.06.2019 22:00:00 12,7 8,2 0,0
16.06.2019 21:00:00 13,0 8,3 0,0
16.06.2019 20:00:00 12,9 7,9 0,0
16.06.2019 19:00:00 13,3 7,6 0,0
16.06.2019 18:00:00 15,2 9,5 0,0
16.06.2019 17:00:00 16,0 9,5 0,0
16.06.2019 16:00:00 11,5 9,1 1,0
16.06.2019 15:00:00 15,6 9,7 1,0
16.06.2019 14:00:00 15,2 7,6 0,0
16.06.2019 13:00:00 16,1 7,0 0,0
16.06.2019 12:00:00 18,0 8,7 0,0
16.06.2019 11:00:00 16,3 7,7 0,0
16.06.2019 10:00:00 15,5 9,0 0,0
16.06.2019 09:00:00 13,3 9,6 0,0
16.06.2019 08:00:00 10,5 9,0 0,0
16.06.2019 07:00:00 9,2 9,1 0,0
16.06.2019 06:00:00 8,2 7,7 0,0
16.06.2019 05:00:00 8,9 8,2 0,0
16.06.2019 04:00:00 10,4 9,7 0,2
16.06.2019 03:00:00 10,9 10,4 0,6
16.06.2019 02:00:00 11,3 10,6 0,0
16.06.2019 01:00:00 11,1 10,5 0,0
16.06.2019 00:00:00 11,1 10,5 0,0
15.06.2019 23:00:00 10,9 10,1 0,0
15.06.2019 22:00:00 11,0 9,8 0,0
15.06.2019 21:00:00 12,2 10,3 0,0
15.06.2019 20:00:00 13,7 10,2 0,0
15.06.2019 19:00:00 15,6 9,1 0,0
15.06.2019 18:00:00 16,4 10,7 0,0
15.06.2019 17:00:00 16,6 11,3 0,0
15.06.2019 16:00:00 16,1 11,1 0,0
15.06.2019 15:00:00 16,9 11,1 0,0
15.06.2019 14:00:00 16,5 11,9 0,0
15.06.2019 13:00:00 15,7 12,3 0,0
15.06.2019 12:00:00 14,0 11,7 0,0
15.06.2019 11:00:00 12,8 11,7 0,0
15.06.2019 10:00:00 11,6 11,3 0,0
15.06.2019 09:00:00 11,0 10,7 0,0
15.06.2019 08:00:00 11,4 11,2 0,0
15.06.2019 07:00:00 9,9 9,9 0,0
15.06.2019 06:00:00 9,4 9,4 0,0
15.06.2019 05:00:00 8,9 8,9 0,0
15.06.2019 04:00:00 8,8 8,8 0,0
15.06.2019 03:00:00 8,1 8,1 0,0
15.06.2019 02:00:00 6,7 6,6 0,0
15.06.2019 01:00:00 6,0 5,6 0,0
15.06.2019 00:00:00 6,5 6,0 0,0
14.06.2019 23:00:00 7,5 6,4 0,0
14.06.2019 22:00:00 9,2 8,1 0,0
14.06.2019 21:00:00 10,4 8,4 0,0
14.06.2019 20:00:00 12,1 7,5 0,0
14.06.2019 19:00:00 12,3 6,7 0,0
14.06.2019 18:00:00 13,1 7,0 0,0
14.06.2019 17:00:00 13,7 5,8 0,0
14.06.2019 16:00:00 14,0 6,7 0,0
14.06.2019 15:00:00 14,8 6,7 0,0
14.06.2019 14:00:00 14,3 6,7 0,0
14.06.2019 13:00:00 12,9 6,3 0,0
14.06.2019 12:00:00 10,9 5,9 0,0
14.06.2019 11:00:00 11,8 5,4 0,0
14.06.2019 10:00:00 12,3 6,6 0,0
14.06.2019 09:00:00 11,3 7,8 0,0
14.06.2019 08:00:00 9,9 8,2 0,0
14.06.2019 07:00:00 9,0 8,2 0,0
14.06.2019 06:00:00 7,8 7,3 0,0
14.06.2019 05:00:00 7,4 7,2 0,0
14.06.2019 04:00:00 6,8 6,3 0,2
14.06.2019 03:00:00 7,5 7,0 0,0
14.06.2019 02:00:00 7,6 7,1 0,0
14.06.2019 01:00:00 7,8 7,2 0,0
14.06.2019 00:00:00 8,1 7,5 0,0
13.06.2019 23:00:00 8,6 7,9 0,0
13.06.2019 22:00:00 8,9 8,2 0,0
13.06.2019 21:00:00 9,1 8,4 0,2
13.06.2019 20:00:00 9,3 8,5 0,2
13.06.2019 19:00:00 9,3 8,6 0,4
13.06.2019 18:00:00 9,2 8,5 0,6
13.06.2019 17:00:00 9,2 8,7 2,0
13.06.2019 16:00:00 8,6 8,0 2,0
13.06.2019 15:00:00 8,3 7,6 1,2
13.06.2019 14:00:00 8,2 7,5 1,0
13.06.2019 13:00:00 7,9 7,2 1,6
13.06.2019 12:00:00 7,6 7,1 2,8
13.06.2019 11:00:00 7,2 6,6 2,4
13.06.2019 10:00:00 6,9 6,5 2,0
13.06.2019 09:00:00 6,9 6,2 0,0
13.06.2019 08:00:00 6,9 6,4 0,4
13.06.2019 07:00:00 6,9 6,4 0,0
13.06.2019 06:00:00 6,8 6,4 0,2
13.06.2019 05:00:00 7,1 6,7 0,4
13.06.2019 04:00:00 7,1 6,7 0,2
13.06.2019 03:00:00 7,6 7,2 0,4
13.06.2019 02:00:00 7,9 7,5 0,4
13.06.2019 01:00:00 8,1 7,7 0,2
13.06.2019 00:00:00 8,5 7,8 0,2

tt = Temperatura
td = dewpoint
rr = precipitazioni

Stazioni seguenti

WeatherPro
AMSI
MeteoEarth